Location: Lesignano de� Bagni
(44.6500°N, 10.3000°E)
Time: 04:31:03
(UTC+00:00)

Cosmos 1703 Rocket - Pass Details

Date: 03 March 2021
Orbit: 604 x 634 km, 82.5° (Epoch: 13 April)

Event Time Altitude Azimuth Distance (km) Brightness Sun altitude
Rises 18:48:14 0° 350° (N) 2,910 7.3 -18.3°
Reaches altitude 10° 18:50:29 10° 350° (N) 1,994 6.4 -18.7°
Maximum altitude 18:54:54 84° 264° (W) 624 3.5 -19.5°
Drops below altitude 10° 18:59:15 10° 175° (S) 1,959 6.0 -20.3°
Enters shadow 18:59:32 - 175° (S) 2,076 6.1 -20.3°
